Location: Conjunto Santa Maria
(19.9513°S, 43.9599°W)
Time: 18:08:56
(UTC+00:00)

Cosmos 1953 Rocket - Pass Details

Date: 21 January 2021
Orbit: 604 x 634 km, 82.5° (Epoch: 01 March)

Event Time Altitude Azimuth Distance (km) Brightness Sun altitude
Rises 22:17:48 0° 191° (SSW) 2,946 7.6 -8.8°
Reaches altitude 10° 22:20:06 10° 195° (SSW) 2,029 6.8 -9.3°
Maximum altitude 22:24:30 55° 273° (W) 757 4.4 -10.2°
Drops below altitude 10° 22:28:49 10° 351° (N) 1,991 6.0 -11.1°
Sets 22:31:03 0° 355° (N) 2,885 6.8 -11.6°
